Time,TemperatureF,DewpointF,PressureIn,WindDirection,WindDirectionDegrees,WindSpeedMPH,WindSpeedGustMPH,Humidity,HourlyPrecipIn,Conditions,Clouds,dailyrainin,SoftwareType,DateUTC
2013-04-06 00:02:00,48.4,46.5,30.12,NNE,15,0.0,0.0,93,0.00,,SKC,0.00,VWS V14.00,2013-04-06 05:02:00,
2013-04-06 00:07:00,48.4,46.5,30.12,NNE,15,0.0,0.0,93,0.00,,SKC,0.00,VWS V14.00,2013-04-06 05:07:00,
2013-04-06 00:12:00,48.3,46.4,30.12,NNE,15,0.0,0.0,93,0.00,,SKC,0.00,VWS V14.00,2013-04-06 05:12:00,
2013-04-06 00:17:00,48.3,46.4,30.12,NNE,15,0.0,0.0,93,0.00,,SKC,0.00,VWS V14.00,2013-04-06 05:17:00,
2013-04-06 00:22:00,48.3,46.7,30.11,NNE,15,0.0,0.0,94,0.00,,SKC,0.00,VWS V14.00,2013-04-06 05:22:00,
2013-04-06 00:27:00,48.4,46.8,30.11,NNE,15,1.0,2.0,94,0.00,,SKC,0.00,VWS V14.00,2013-04-06 05:27:00,
2013-04-06 00:32:00,48.3,46.7,30.11,NNE,15,0.0,2.0,94,0.00,,SKC,0.00,VWS V14.00,2013-04-06 05:32:00,
2013-04-06 00:37:00,48.2,46.6,30.11,NNE,15,0.0,2.0,94,0.00,,SKC,0.00,VWS V14.00,2013-04-06 05:37:00,
2013-04-06 00:42:00,48.2,46.6,30.10,NNE,15,0.0,2.0,94,0.00,,SKC,0.00,VWS V14.00,2013-04-06 05:42:00,
2013-04-06 00:47:00,48.1,46.5,30.10,NNE,15,0.0,2.0,94,0.00,,SKC,0.00,VWS V14.00,2013-04-06 05:47:00,
2013-04-06 00:52:00,47.8,45.9,30.10,NNE,15,0.0,2.0,93,0.00,,SKC,0.00,VWS V14.00,2013-04-06 05:52:00,
2013-04-06 00:57:00,47.6,45.7,30.10,NNE,15,0.0,2.0,93,0.00,,SKC,0.00,VWS V14.00,2013-04-06 05:57:00,
2013-04-06 01:02:00,47.3,45.7,30.10,NNE,15,0.0,0.0,94,0.00,,SKC,0.00,VWS V14.00,2013-04-06 06:02:00,
2013-04-06 01:07:00,47.1,45.5,30.10,NNE,15,0.0,0.0,94,0.00,,SKC,0.00,VWS V14.00,2013-04-06 06:07:00,
2013-04-06 01:12:00,47.0,45.4,30.10,NNE,15,0.0,0.0,94,0.00,,SKC,0.00,VWS V14.00,2013-04-06 06:12:00,
2013-04-06 01:17:00,47.0,45.4,30.11,NNE,15,0.0,0.0,94,0.00,,SKC,0.00,VWS V14.00,2013-04-06 06:17:00,
2013-04-06 01:22:00,47.0,45.7,30.11,NNE,15,0.0,0.0,95,0.00,,SKC,0.00,VWS V14.00,2013-04-06 06:22:00,
2013-04-06 01:27:00,47.0,45.7,30.11,NNE,15,1.0,3.0,95,0.00,,SKC,0.00,VWS V14.00,2013-04-06 06:27:00,
2013-04-06 01:32:00,47.0,45.7,30.11,NNE,15,2.0,3.0,95,0.00,,SKC,0.00,VWS V14.00,2013-04-06 06:32:00,
2013-04-06 01:37:00,46.9,45.3,30.11,NNE,15,1.0,3.0,94,0.00,,SKC,0.00,VWS V14.00,2013-04-06 06:37:00,
2013-04-06 01:42:00,46.9,45.5,30.11,NNE,15,0.0,3.0,95,0.00,,SKC,0.00,VWS V14.00,2013-04-06 06:42:00,
2013-04-06 01:47:00,46.8,45.5,30.11,NNE,15,0.0,3.0,95,0.00,,SKC,0.00,VWS V14.00,2013-04-06 06:47:00,
2013-04-06 01:52:00,46.6,45.0,30.11,NNE,15,0.0,3.0,94,0.00,,SKC,0.00,VWS V14.00,2013-04-06 06:52:00,
2013-04-06 01:57:00,46.5,45.2,30.11,NNE,15,0.0,3.0,95,0.00,,SKC,0.00,VWS V14.00,2013-04-06 06:57:00,
2013-04-06 02:02:00,46.4,45.0,30.11,NNE,15,0.0,0.0,95,0.00,,SKC,0.00,VWS V14.00,2013-04-06 07:02:00,
2013-04-06 02:07:00,46.4,45.0,30.11,NNE,15,0.0,0.0,95,0.00,,SKC,0.00,VWS V14.00,2013-04-06 07:07:00,
2013-04-06 02:12:00,46.3,45.0,30.11,NNE,15,0.0,0.0,95,0.00,,SKC,0.00,VWS V14.00,2013-04-06 07:12:00,
2013-04-06 02:17:00,46.3,45.0,30.10,NNE,15,0.0,0.0,95,0.00,,SKC,0.00,VWS V14.00,2013-04-06 07:17:00,
2013-04-06 02:22:00,46.2,44.8,30.10,NNE,15,0.0,0.0,95,0.00,,SKC,0.00,VWS V14.00,2013-04-06 07:22:00,
2013-04-06 02:27:00,46.1,44.8,30.10,NNE,15,0.0,0.0,95,0.00,,SKC,0.00,VWS V14.00,2013-04-06 07:27:00,
2013-04-06 02:32:00,46.1,44.8,30.09,NNE,15,0.0,0.0,95,0.00,,SKC,0.00,VWS V14.00,2013-04-06 07:32:00,
2013-04-06 02:37:00,46.0,44.7,30.09,NNE,15,0.0,0.0,95,0.00,,SKC,0.00,VWS V14.00,2013-04-06 07:37:00,
2013-04-06 02:42:00,45.9,44.5,30.09,NNE,15,0.0,0.0,95,0.00,,SKC,0.00,VWS V14.00,2013-04-06 07:42:00,
2013-04-06 02:47:00,45.8,44.5,30.09,NNE,15,0.0,0.0,95,0.00,,SKC,0.00,VWS V14.00,2013-04-06 07:47:00,
2013-04-06 02:52:00,45.9,44.5,30.09,NNE,15,0.0,0.0,95,0.00,,SKC,0.00,VWS V14.00,2013-04-06 07:52:00,
2013-04-06 02:57:00,45.9,44.5,30.09,NNE,15,0.0,1.0,95,0.00,,SKC,0.00,VWS V14.00,2013-04-06 07:57:00,
2013-04-06 03:02:00,45.7,44.3,30.10,NNE,15,0.0,0.0,95,0.00,,SKC,0.00,VWS V14.00,2013-04-06 08:02:00,
2013-04-06 03:07:00,45.6,44.2,30.09,NNE,15,0.0,0.0,95,0.00,,SKC,0.00,VWS V14.00,2013-04-06 08:07:00,
2013-04-06 03:12:00,45.5,44.2,30.09,NNE,15,0.0,0.0,95,0.00,,SKC,0.00,VWS V14.00,2013-04-06 08:12:00,
2013-04-06 03:17:00,45.5,44.2,30.09,NNE,15,0.0,0.0,95,0.00,,SKC,0.00,VWS V14.00,2013-04-06 08:17:00,
2013-04-06 03:22:00,45.6,44.5,30.09,NNE,15,0.0,0.0,96,0.00,,SKC,0.00,VWS V14.00,2013-04-06 08:22:00,
2013-04-06 03:27:00,45.6,44.5,30.09,NNE,15,0.0,0.0,96,0.00,,SKC,0.00,VWS V14.00,2013-04-06 08:27:00,
2013-04-06 03:32:00,45.6,44.5,30.09,NNE,15,0.0,0.0,96,0.00,,SKC,0.00,VWS V14.00,2013-04-06 08:32:00,
2013-04-06 03:37:00,45.6,44.5,30.09,NNE,15,0.0,0.0,96,0.00,,SKC,0.00,VWS V14.00,2013-04-06 08:37:00,
2013-04-06 03:42:00,45.5,44.4,30.09,NNE,15,0.0,0.0,96,0.00,,SKC,0.00,VWS V14.00,2013-04-06 08:42:00,
2013-04-06 03:47:00,45.5,44.4,30.09,NNE,15,0.0,0.0,96,0.00,,SKC,0.00,VWS V14.00,2013-04-06 08:47:00,
2013-04-06 03:52:00,45.5,44.4,30.08,NNE,15,0.0,0.0,96,0.00,,SKC,0.00,VWS V14.00,2013-04-06 08:52:00,
2013-04-06 03:57:00,45.4,44.3,30.08,NNE,15,0.0,0.0,96,0.00,,SKC,0.00,VWS V14.00,2013-04-06 08:57:00,
2013-04-06 04:02:00,45.5,44.4,30.08,NNE,15,0.0,0.0,96,0.00,,SKC,0.00,VWS V14.00,2013-04-06 09:02:00,
2013-04-06 04:07:00,45.5,44.4,30.07,NNE,15,0.0,0.0,96,0.00,,SKC,0.00,VWS V14.00,2013-04-06 09:07:00,
2013-04-06 04:12:00,45.4,44.3,30.08,NNE,15,0.0,0.0,96,0.00,,SKC,0.00,VWS V14.00,2013-04-06 09:12:00,
2013-04-06 04:17:00,45.1,43.8,30.08,NNE,15,0.0,0.0,95,0.00,,SKC,0.00,VWS V14.00,2013-04-06 09:17:00,
2013-04-06 04:22:00,44.8,43.5,30.08,NNE,15,0.0,0.0,95,0.00,,SKC,0.00,VWS V14.00,2013-04-06 09:22:00,
2013-04-06 04:27:00,44.8,43.7,30.08,NNE,15,0.0,0.0,96,0.00,,SKC,0.00,VWS V14.00,2013-04-06 09:27:00,
2013-04-06 04:32:00,44.9,43.8,30.08,NNE,15,0.0,0.0,96,0.00,,SKC,0.00,VWS V14.00,2013-04-06 09:32:00,
2013-04-06 04:37:00,45.0,43.9,30.08,NNE,15,0.0,0.0,96,0.00,,SKC,0.00,VWS V14.00,2013-04-06 09:37:00,
2013-04-06 04:42:00,45.0,43.9,30.08,NNE,15,0.0,0.0,96,0.00,,SKC,0.00,VWS V14.00,2013-04-06 09:42:00,
2013-04-06 04:47:00,44.9,43.8,30.08,NNE,15,0.0,0.0,96,0.00,,SKC,0.00,VWS V14.00,2013-04-06 09:47:00,
2013-04-06 04:52:00,44.8,43.7,30.08,NNE,15,0.0,0.0,96,0.00,,SKC,0.00,VWS V14.00,2013-04-06 09:52:00,
2013-04-06 04:57:00,44.7,43.6,30.08,NNE,15,0.0,0.0,96,0.00,,SKC,0.00,VWS V14.00,2013-04-06 09:57:00,
2013-04-06 05:02:00,44.7,43.6,30.08,NNE,15,0.0,0.0,96,0.00,,SKC,0.00,VWS V14.00,2013-04-06 10:02:00,
2013-04-06 05:07:00,44.7,43.6,30.08,NNE,15,0.0,0.0,96,0.00,,SKC,0.00,VWS V14.00,2013-04-06 10:07:00,
2013-04-06 05:12:00,44.6,43.5,30.08,NNE,15,0.0,0.0,96,0.00,,SKC,0.00,VWS V14.00,2013-04-06 10:12:00,
2013-04-06 05:17:00,44.4,43.3,30.09,NNE,15,0.0,0.0,96,0.00,,SKC,0.00,VWS V14.00,2013-04-06 10:17:00,
2013-04-06 05:22:00,44.3,43.2,30.09,NNE,15,0.0,0.0,96,0.00,,SKC,0.00,VWS V14.00,2013-04-06 10:22:00,
2013-04-06 05:27:00,44.3,43.2,30.09,NNE,15,0.0,0.0,96,0.00,,SKC,0.00,VWS V14.00,2013-04-06 10:27:00,
2013-04-06 05:32:00,44.2,43.1,30.08,NNE,15,0.0,0.0,96,0.00,,SKC,0.00,VWS V14.00,2013-04-06 10:32:00,
2013-04-06 05:37:00,44.2,43.1,30.08,NNE,15,0.0,0.0,96,0.00,,SKC,0.00,VWS V14.00,2013-04-06 10:37:00,
2013-04-06 05:42:00,44.3,43.2,30.09,NNE,15,0.0,0.0,96,0.00,,SKC,0.00,VWS V14.00,2013-04-06 10:42:00,
2013-04-06 05:47:00,44.3,43.2,30.08,NNE,15,0.0,0.0,96,0.00,,SKC,0.00,VWS V14.00,2013-04-06 10:47:00,
2013-04-06 05:52:00,44.3,43.2,30.08,NNE,15,0.0,0.0,96,0.00,,SKC,0.00,VWS V14.00,2013-04-06 10:52:00,
2013-04-06 05:57:00,44.3,43.2,30.08,NNE,15,0.0,0.0,96,0.00,,SKC,0.00,VWS V14.00,2013-04-06 10:57:00,
2013-04-06 06:02:00,44.3,43.2,30.08,NNE,15,0.0,0.0,96,0.00,,SKC,0.00,VWS V14.00,2013-04-06 11:02:00,
2013-04-06 06:07:00,44.3,43.2,30.08,NNE,15,0.0,0.0,96,0.00,,SKC,0.00,VWS V14.00,2013-04-06 11:07:00,
2013-04-06 06:12:00,44.3,43.2,30.08,NNE,15,0.0,0.0,96,0.00,,SKC,0.00,VWS V14.00,2013-04-06 11:12:00,
2013-04-06 06:17:00,44.5,43.4,30.09,NNE,15,0.0,0.0,96,0.00,,SKC,0.00,VWS V14.00,2013-04-06 11:17:00,
2013-04-06 06:22:00,44.5,43.4,30.09,NNE,15,0.0,0.0,96,0.00,,SKC,0.00,VWS V14.00,2013-04-06 11:22:00,
2013-04-06 06:27:00,44.4,43.3,30.08,NNE,15,0.0,0.0,96,0.00,,SKC,0.00,VWS V14.00,2013-04-06 11:27:00,
2013-04-06 06:32:00,44.3,43.2,30.08,NNE,15,0.0,0.0,96,0.00,,SKC,0.00,VWS V14.00,2013-04-06 11:32:00,
2013-04-06 06:33:00,44.3,43.2,30.08,NNE,15,0.0,0.0,96,0.00,,SKC,0.00,VWS V14.00,2013-04-06 11:33:00,
2013-04-06 06:38:00,44.3,43.2,30.08,NNE,15,0.0,0.0,96,0.00,,SKC,0.00,VWS V14.00,2013-04-06 11:38:00,
2013-04-06 06:43:00,44.3,43.2,30.08,NNE,15,0.0,0.0,96,0.00,,SKC,0.00,VWS V14.00,2013-04-06 11:43:00,
2013-04-06 06:48:00,44.3,43.2,30.09,NNE,15,0.0,0.0,96,0.00,,SKC,0.00,VWS V14.00,2013-04-06 11:48:00,
2013-04-06 06:53:00,44.3,43.2,30.09,NNE,15,0.0,0.0,96,0.00,,SKC,0.00,VWS V14.00,2013-04-06 11:53:00,
2013-04-06 06:58:00,44.3,43.2,30.09,NNE,15,0.0,0.0,96,0.00,,SKC,0.00,VWS V14.00,2013-04-06 11:58:00,
2013-04-06 07:03:00,44.3,43.2,30.09,NNE,15,0.0,0.0,96,0.00,,SKC,0.00,VWS V14.00,2013-04-06 12:03:00,
2013-04-06 07:08:00,44.5,43.4,30.08,NNE,15,0.0,0.0,96,0.00,,SKC,0.00,VWS V14.00,2013-04-06 12:08:00,
2013-04-06 07:13:00,44.5,43.7,30.09,NNE,15,0.0,0.0,97,0.00,,SKC,0.00,VWS V14.00,2013-04-06 12:13:00,
2013-04-06 07:18:00,44.6,43.8,30.09,NNE,15,0.0,0.0,97,0.00,,SKC,0.00,VWS V14.00,2013-04-06 12:18:00,
2013-04-06 07:23:00,44.7,43.9,30.08,NNE,15,0.0,0.0,97,0.00,,SKC,0.00,VWS V14.00,2013-04-06 12:23:00,
2013-04-06 07:28:00,44.8,44.0,30.08,NNE,15,0.0,0.0,97,0.00,,SKC,0.00,VWS V14.00,2013-04-06 12:28:00,
2013-04-06 07:33:00,45.0,44.2,30.09,NNE,15,0.0,0.0,97,0.00,,SKC,0.00,VWS V14.00,2013-04-06 12:33:00,
2013-04-06 07:38:00,45.2,44.4,30.09,NNE,15,0.0,0.0,97,0.00,,SKC,0.00,VWS V14.00,2013-04-06 12:38:00,
2013-04-06 07:43:00,45.4,44.6,30.09,NNE,15,0.0,0.0,97,0.00,,SKC,0.00,VWS V14.00,2013-04-06 12:43:00,
2013-04-06 07:48:00,45.8,45.0,30.09,NNE,15,0.0,0.0,97,0.00,,SKC,0.00,VWS V14.00,2013-04-06 12:48:00,
2013-04-06 07:53:00,46.8,46.0,30.09,NNE,15,0.0,2.0,97,0.00,,SKC,0.00,VWS V14.00,2013-04-06 12:53:00,
2013-04-06 07:58:00,47.9,47.4,30.08,NNE,15,0.0,3.0,98,0.00,,SKC,0.00,VWS V14.00,2013-04-06 12:58:00,
2013-04-06 08:03:00,48.7,48.2,30.08,NNE,31,3.0,4.0,98,0.00,,SKC,0.00,VWS V14.00,2013-04-06 13:03:00,
2013-04-06 08:08:00,49.8,49.3,30.09,ESE,110,4.0,5.0,98,0.00,,SKC,0.00,VWS V14.00,2013-04-06 13:08:00,
2013-04-06 08:13:00,51.0,50.5,30.10,ESE,120,4.0,5.0,98,0.00,,SKC,0.00,VWS V14.00,2013-04-06 13:13:00,
2013-04-06 08:18:00,52.1,51.5,30.10,SE,132,5.0,6.0,98,0.00,,SKC,0.00,VWS V14.00,2013-04-06 13:18:00,
2013-04-06 08:23:00,53.2,52.4,30.09,SE,132,2.0,6.0,97,0.00,,SKC,0.00,VWS V14.00,2013-04-06 13:23:00,
2013-04-06 08:28:00,54.0,52.0,30.09,SE,138,4.0,6.0,93,0.00,,SKC,0.00,VWS V14.00,2013-04-06 13:28:00,
2013-04-06 08:33:00,54.9,52.3,30.09,SE,140,1.0,7.0,91,0.00,,SKC,0.00,VWS V14.00,2013-04-06 13:33:00,
2013-04-06 08:38:00,55.9,52.7,30.09,SE,133,6.0,7.0,89,0.00,,SKC,0.00,VWS V14.00,2013-04-06 13:38:00,
2013-04-06 08:43:00,56.6,52.5,30.10,SSE,160,6.0,8.0,86,0.00,,SKC,0.00,VWS V14.00,2013-04-06 13:43:00,
2013-04-06 08:48:00,57.1,52.6,30.09,SSE,150,6.0,9.0,85,0.00,,SKC,0.00,VWS V14.00,2013-04-06 13:48:00,
2013-04-06 08:53:00,57.7,52.9,30.10,SSE,167,8.0,9.0,84,0.00,,SKC,0.00,VWS V14.00,2013-04-06 13:53:00,
2013-04-06 08:58:00,58.4,52.9,30.10,SSE,161,9.0,9.0,82,0.00,,SKC,0.00,VWS V14.00,2013-04-06 13:58:00,
2013-04-06 09:03:00,58.9,52.8,30.10,SSE,158,9.0,10.0,80,0.00,,SKC,0.00,VWS V14.00,2013-04-06 14:03:00,
2013-04-06 09:08:00,59.1,52.3,30.10,SSE,148,4.0,11.0,78,0.00,,SKC,0.00,VWS V14.00,2013-04-06 14:08:00,
2013-04-06 09:13:00,59.4,52.9,30.10,SE,146,4.0,11.0,79,0.00,,SKC,0.00,VWS V14.00,2013-04-06 14:13:00,
2013-04-06 09:18:00,60.0,52.8,30.11,SE,138,5.0,11.0,77,0.00,,SKC,0.00,VWS V14.00,2013-04-06 14:18:00,
2013-04-06 09:23:00,60.5,52.9,30.11,SSE,152,7.0,11.0,76,0.00,,SKC,0.00,VWS V14.00,2013-04-06 14:23:00,
2013-04-06 09:28:00,61.1,53.1,30.12,SSE,155,6.0,11.0,75,0.00,,SKC,0.00,VWS V14.00,2013-04-06 14:28:00,
2013-04-06 09:33:00,61.6,53.2,30.11,SSE,147,8.0,12.0,74,0.00,,SKC,0.00,VWS V14.00,2013-04-06 14:33:00,
2013-04-06 09:38:00,61.7,52.6,30.11,SSE,150,12.0,13.0,72,0.00,,SKC,0.00,VWS V14.00,2013-04-06 14:38:00,
2013-04-06 09:43:00,61.7,53.0,30.10,SSE,163,8.0,13.0,73,0.00,,SKC,0.00,VWS V14.00,2013-04-06 14:43:00,
2013-04-06 09:48:00,62.3,53.5,30.12,SSE,163,7.0,13.0,73,0.00,,SKC,0.00,VWS V14.00,2013-04-06 14:48:00,
2013-04-06 09:53:00,62.8,53.3,30.11,SSE,154,2.0,13.0,71,0.00,,SKC,0.00,VWS V14.00,2013-04-06 14:53:00,
2013-04-06 09:58:00,63.4,53.8,30.11,SSE,151,9.0,13.0,71,0.00,,SKC,0.00,VWS V14.00,2013-04-06 14:58:00,
2013-04-06 10:03:00,63.9,53.1,30.11,SE,135,7.0,14.0,68,0.00,,SKC,0.00,VWS V14.00,2013-04-06 15:03:00,
2013-04-06 10:08:00,64.1,52.9,30.11,SSE,162,10.0,14.0,67,0.00,,SKC,0.00,VWS V14.00,2013-04-06 15:08:00,
2013-04-06 10:13:00,64.3,53.1,30.11,SSE,161,11.0,15.0,67,0.00,,SKC,0.00,VWS V14.00,2013-04-06 15:13:00,
2013-04-06 10:18:00,64.8,53.2,30.11,SSE,159,7.0,15.0,66,0.00,,SKC,0.00,VWS V14.00,2013-04-06 15:18:00,
2013-04-06 10:23:00,65.0,53.4,30.11,SSE,153,10.0,15.0,66,0.00,,SKC,0.00,VWS V14.00,2013-04-06 15:23:00,
2013-04-06 10:28:00,65.0,53.0,30.11,South,170,8.0,15.0,65,0.00,,SKC,0.00,VWS V14.00,2013-04-06 15:28:00,
2013-04-06 10:33:00,64.9,53.7,30.11,SSE,165,8.0,15.0,67,0.00,,SKC,0.00,VWS V14.00,2013-04-06 15:33:00,
2013-04-06 10:38:00,65.2,53.2,30.11,South,172,11.0,16.0,65,0.00,,SKC,0.00,VWS V14.00,2013-04-06 15:38:00,
2013-04-06 10:43:00,65.7,52.8,30.11,South,171,11.0,16.0,63,0.00,,SKC,0.00,VWS V14.00,2013-04-06 15:43:00,
2013-04-06 10:48:00,66.1,53.2,30.11,SSE,160,12.0,16.0,63,0.00,,SKC,0.00,VWS V14.00,2013-04-06 15:48:00,
2013-04-06 10:53:00,66.5,52.7,30.11,South,175,14.0,19.0,61,0.00,,SKC,0.00,VWS V14.00,2013-04-06 15:53:00,
2013-04-06 10:58:00,66.6,52.8,30.12,South,185,10.0,20.0,61,0.00,,SKC,0.00,VWS V14.00,2013-04-06 15:58:00,
2013-04-06 11:03:00,66.6,51.8,30.12,South,175,16.0,19.0,59,0.00,,SKC,0.00,VWS V14.00,2013-04-06 16:03:00,
2013-04-06 11:08:00,67.2,53.8,30.12,South,175,12.0,21.0,62,0.00,,SKC,0.00,VWS V14.00,2013-04-06 16:08:00,
2013-04-06 11:13:00,67.7,53.3,30.12,SSE,161,9.0,21.0,60,0.00,,SKC,0.00,VWS V14.00,2013-04-06 16:13:00,
2013-04-06 11:18:00,67.5,52.7,30.12,South,180,11.0,21.0,59,0.00,,SKC,0.00,VWS V14.00,2013-04-06 16:18:00,
2013-04-06 11:23:00,67.3,52.5,30.12,SSE,159,13.0,21.0,59,0.00,,SKC,0.00,VWS V14.00,2013-04-06 16:23:00,
2013-04-06 11:28:00,67.2,54.6,30.12,SSE,147,10.0,21.0,64,0.00,,SKC,0.00,VWS V14.00,2013-04-06 16:28:00,
2013-04-06 11:33:00,67.9,53.5,30.13,South,186,6.0,21.0,60,0.00,,SKC,0.00,VWS V14.00,2013-04-06 16:33:00,
2013-04-06 11:38:00,67.9,53.5,30.13,South,175,13.0,21.0,60,0.00,,SKC,0.00,VWS V14.00,2013-04-06 16:38:00,
2013-04-06 11:43:00,67.9,53.5,30.13,SSE,161,13.0,21.0,60,0.00,,SKC,0.00,VWS V14.00,2013-04-06 16:43:00,
2013-04-06 11:48:00,68.3,53.4,30.13,South,183,14.0,21.0,59,0.00,,SKC,0.00,VWS V14.00,2013-04-06 16:48:00,
2013-04-06 11:53:00,68.4,52.6,30.13,South,173,10.0,21.0,57,0.00,,SKC,0.00,VWS V14.00,2013-04-06 16:53:00,
2013-04-06 11:58:00,68.7,52.9,30.13,South,180,11.0,21.0,57,0.00,,SKC,0.00,VWS V14.00,2013-04-06 16:58:00,
2013-04-06 12:03:00,68.8,53.9,30.13,SSE,165,10.0,14.0,59,0.00,,SKC,0.00,VWS V14.00,2013-04-06 17:03:00,
2013-04-06 12:08:00,69.6,54.7,30.12,SSE,161,18.0,18.0,59,0.00,,SKC,0.00,VWS V14.00,2013-04-06 17:08:00,
2013-04-06 12:13:00,69.4,54.0,30.12,South,180,14.0,23.0,58,0.00,,SKC,0.00,VWS V14.00,2013-04-06 17:13:00,
2013-04-06 12:18:00,69.4,53.0,30.13,SSW,200,10.0,23.0,56,0.00,,SKC,0.00,VWS V14.00,2013-04-06 17:18:00,
2013-04-06 12:23:00,69.1,53.2,30.12,South,185,6.0,23.0,57,0.00,,SKC,0.00,VWS V14.00,2013-04-06 17:23:00,
2013-04-06 12:28:00,69.1,54.2,30.12,South,182,4.0,23.0,59,0.00,,SKC,0.00,VWS V14.00,2013-04-06 17:28:00,
2013-04-06 12:33:00,69.4,53.5,30.11,SSW,198,13.0,23.0,57,0.00,,SKC,0.00,VWS V14.00,2013-04-06 17:33:00,
2013-04-06 12:38:00,69.7,53.3,30.11,South,190,7.0,23.0,56,0.00,,SKC,0.00,VWS V14.00,2013-04-06 17:38:00,
2013-04-06 12:43:00,69.3,52.0,30.11,South,190,11.0,23.0,54,0.00,,SKC,0.00,VWS V14.00,2013-04-06 17:43:00,
2013-04-06 12:48:00,69.7,52.8,30.11,South,191,11.0,23.0,55,0.00,,SKC,0.00,VWS V14.00,2013-04-06 17:48:00,
2013-04-06 12:53:00,70.0,53.1,30.11,SSW,196,9.0,23.0,55,0.00,,SKC,0.00,VWS V14.00,2013-04-06 17:53:00,
2013-04-06 12:58:00,70.2,53.3,30.11,SSE,165,14.0,23.0,55,0.00,,SKC,0.00,VWS V14.00,2013-04-06 17:58:00,
2013-04-06 13:03:00,70.2,54.3,30.11,South,178,14.0,22.0,57,0.00,,SKC,0.00,VWS V14.00,2013-04-06 18:03:00,
2013-04-06 13:08:00,70.4,54.0,30.10,SSW,207,8.0,22.0,56,0.00,,SKC,0.00,VWS V14.00,2013-04-06 18:08:00,
2013-04-06 13:13:00,70.0,55.0,30.10,SSW,196,13.0,22.0,59,0.00,,SKC,0.00,VWS V14.00,2013-04-06 18:13:00,
2013-04-06 13:18:00,70.0,55.5,30.09,South,176,15.0,22.0,60,0.00,,SKC,0.00,VWS V14.00,2013-04-06 18:18:00,
2013-04-06 13:23:00,70.2,54.3,30.09,South,178,12.0,22.0,57,0.00,,SKC,0.00,VWS V14.00,2013-04-06 18:23:00,
2013-04-06 13:28:00,71.0,54.5,30.09,South,185,18.0,22.0,56,0.00,,SKC,0.00,VWS V14.00,2013-04-06 18:28:00,
2013-04-06 13:33:00,70.9,54.9,30.09,South,188,12.0,22.0,57,0.00,,SKC,0.00,VWS V14.00,2013-04-06 18:33:00,
2013-04-06 13:38:00,71.1,52.6,30.09,SSW,194,10.0,22.0,52,0.00,,SKC,0.00,VWS V14.00,2013-04-06 18:38:00,
2013-04-06 13:43:00,70.8,53.3,30.09,SW,225,8.0,22.0,54,0.00,,SKC,0.00,VWS V14.00,2013-04-06 18:43:00,
2013-04-06 13:48:00,70.0,51.6,30.09,SSW,205,9.0,22.0,52,0.00,,SKC,0.00,VWS V14.00,2013-04-06 18:48:00,
2013-04-06 13:53:00,70.0,52.6,30.08,SSW,192,11.0,22.0,54,0.00,,SKC,0.00,VWS V14.00,2013-04-06 18:53:00,
2013-04-06 13:58:00,70.8,53.8,30.08,SW,217,11.0,22.0,55,0.00,,SKC,0.00,VWS V14.00,2013-04-06 18:58:00,
2013-04-06 14:03:00,71.2,53.7,30.08,South,180,12.0,19.0,54,0.00,,SKC,0.00,VWS V14.00,2013-04-06 19:03:00,
2013-04-06 14:08:00,71.3,54.3,30.08,SSW,204,8.0,21.0,55,0.00,,SKC,0.00,VWS V14.00,2013-04-06 19:08:00,
2013-04-06 14:13:00,71.2,54.7,30.08,SSW,210,10.0,21.0,56,0.00,,SKC,0.00,VWS V14.00,2013-04-06 19:13:00,
2013-04-06 14:18:00,71.2,55.7,30.08,SSW,197,6.0,21.0,58,0.00,,SKC,0.00,VWS V14.00,2013-04-06 19:18:00,
2013-04-06 14:23:00,71.3,54.3,30.08,SSW,203,9.0,21.0,55,0.00,,SKC,0.00,VWS V14.00,2013-04-06 19:23:00,
2013-04-06 14:28:00,70.9,55.4,30.07,South,182,5.0,21.0,58,0.00,,SKC,0.00,VWS V14.00,2013-04-06 19:28:00,
2013-04-06 14:33:00,70.9,55.4,30.05,SSW,192,11.0,21.0,58,0.00,,SKC,0.00,VWS V14.00,2013-04-06 19:33:00,
2013-04-06 14:38:00,71.0,55.5,30.05,South,191,17.0,21.0,58,0.00,,SKC,0.00,VWS V14.00,2013-04-06 19:38:00,
2013-04-06 14:43:00,70.6,56.1,30.06,SSW,207,14.0,21.0,60,0.00,,SKC,0.00,VWS V14.00,2013-04-06 19:43:00,
2013-04-06 14:48:00,70.8,55.3,30.05,SSW,198,13.0,21.0,58,0.00,,SKC,0.00,VWS V14.00,2013-04-06 19:48:00,
2013-04-06 14:53:00,70.7,55.7,30.05,SSW,195,12.0,22.0,59,0.00,,SKC,0.00,VWS V14.00,2013-04-06 19:53:00,
2013-04-06 14:58:00,71.1,56.5,30.05,South,181,13.0,22.0,60,0.00,,SKC,0.00,VWS V14.00,2013-04-06 19:58:00,
2013-04-06 15:03:00,70.4,55.4,30.05,SSE,164,11.0,18.0,59,0.00,,SKC,0.00,VWS V14.00,2013-04-06 20:03:00,
2013-04-06 15:08:00,70.1,56.0,30.05,SSW,200,9.0,19.0,61,0.00,,SKC,0.00,VWS V14.00,2013-04-06 20:08:00,
2013-04-06 15:13:00,69.8,56.7,30.05,South,172,9.0,19.0,63,0.00,,SKC,0.00,VWS V14.00,2013-04-06 20:13:00,
2013-04-06 15:18:00,70.1,56.0,30.06,SSW,211,10.0,19.0,61,0.00,,SKC,0.00,VWS V14.00,2013-04-06 20:18:00,
2013-04-06 15:23:00,69.8,56.2,30.05,SSE,166,12.0,19.0,62,0.00,,SKC,0.00,VWS V14.00,2013-04-06 20:23:00,
2013-04-06 15:28:00,69.3,55.7,30.05,South,188,8.0,19.0,62,0.00,,SKC,0.00,VWS V14.00,2013-04-06 20:28:00,
2013-04-06 15:33:00,69.4,56.3,30.05,South,179,10.0,19.0,63,0.00,,SKC,0.00,VWS V14.00,2013-04-06 20:33:00,
2013-04-06 15:38:00,69.8,56.2,30.05,SW,217,7.0,19.0,62,0.00,,SKC,0.00,VWS V14.00,2013-04-06 20:38:00,
2013-04-06 15:43:00,70.2,57.0,30.05,SSW,196,11.0,19.0,63,0.00,,SKC,0.00,VWS V14.00,2013-04-06 20:43:00,
2013-04-06 15:48:00,70.2,56.6,30.04,SSW,211,14.0,19.0,62,0.00,,SKC,0.00,VWS V14.00,2013-04-06 20:48:00,
2013-04-06 15:53:00,70.6,56.1,30.05,SSW,206,7.0,19.0,60,0.00,,SKC,0.00,VWS V14.00,2013-04-06 20:53:00,
2013-04-06 15:58:00,70.4,56.3,30.04,SW,215,11.0,19.0,61,0.00,,SKC,0.00,VWS V14.00,2013-04-06 20:58:00,
2013-04-06 16:03:00,69.8,57.1,30.04,SSW,211,7.0,12.0,64,0.00,,SKC,0.00,VWS V14.00,2013-04-06 21:03:00,
2013-04-06 16:08:00,69.5,56.4,30.04,South,184,15.0,19.0,63,0.00,,SKC,0.00,VWS V14.00,2013-04-06 21:08:00,
2013-04-06 16:13:00,69.9,58.0,30.03,South,179,11.0,19.0,66,0.00,,SKC,0.00,VWS V14.00,2013-04-06 21:13:00,
2013-04-06 16:18:00,70.3,57.1,30.04,SSW,192,11.0,19.0,63,0.00,,SKC,0.00,VWS V14.00,2013-04-06 21:18:00,
2013-04-06 16:23:00,70.4,56.8,30.04,SSW,206,12.0,19.0,62,0.00,,SKC,0.00,VWS V14.00,2013-04-06 21:23:00,
2013-04-06 16:28:00,69.9,55.8,30.04,SW,223,4.0,19.0,61,0.00,,SKC,0.00,VWS V14.00,2013-04-06 21:28:00,
2013-04-06 16:33:00,69.6,56.0,30.03,SW,233,7.0,19.0,62,0.00,,SKC,0.00,VWS V14.00,2013-04-06 21:33:00,
2013-04-06 16:38:00,70.1,56.0,30.03,South,186,11.0,19.0,61,0.00,,SKC,0.00,VWS V14.00,2013-04-06 21:38:00,
2013-04-06 16:43:00,70.0,55.0,30.04,SSW,213,9.0,19.0,59,0.00,,SKC,0.00,VWS V14.00,2013-04-06 21:43:00,
2013-04-06 16:48:00,69.4,55.4,30.03,SSW,197,10.0,19.0,61,0.00,,SKC,0.00,VWS V14.00,2013-04-06 21:48:00,
2013-04-06 16:53:00,69.2,55.6,30.03,South,188,11.0,19.0,62,0.00,,SKC,0.00,VWS V14.00,2013-04-06 21:53:00,
2013-04-06 16:58:00,69.5,55.9,30.03,South,173,9.0,19.0,62,0.00,,SKC,0.00,VWS V14.00,2013-04-06 21:58:00,
2013-04-06 17:03:00,69.7,56.1,30.02,South,178,8.0,13.0,62,0.00,,SKC,0.00,VWS V14.00,2013-04-06 22:03:00,
2013-04-06 17:08:00,69.8,56.2,30.02,South,182,11.0,16.0,62,0.00,,SKC,0.00,VWS V14.00,2013-04-06 22:08:00,
2013-04-06 17:13:00,69.7,56.1,30.03,South,189,11.0,16.0,62,0.00,,SKC,0.00,VWS V14.00,2013-04-06 22:13:00,
2013-04-06 17:18:00,69.2,56.1,30.02,SSW,198,10.0,16.0,63,0.00,,SKC,0.00,VWS V14.00,2013-04-06 22:18:00,
2013-04-06 17:23:00,69.2,56.1,30.02,South,180,5.0,16.0,63,0.00,,SKC,0.00,VWS V14.00,2013-04-06 22:23:00,
2013-04-06 17:28:00,69.4,55.8,30.02,SSE,165,7.0,16.0,62,0.00,,SKC,0.00,VWS V14.00,2013-04-06 22:28:00,
2013-04-06 17:33:00,69.4,56.3,30.02,SSW,203,9.0,16.0,63,0.00,,SKC,0.00,VWS V14.00,2013-04-06 22:33:00,
2013-04-06 17:38:00,69.6,56.0,30.02,SSW,200,8.0,19.0,62,0.00,,SKC,0.00,VWS V14.00,2013-04-06 22:38:00,
2013-04-06 17:43:00,69.7,55.2,30.02,South,190,13.0,19.0,60,0.00,,SKC,0.00,VWS V14.00,2013-04-06 22:43:00,
2013-04-06 17:48:00,69.5,55.5,30.02,SSW,210,13.0,19.0,61,0.00,,SKC,0.00,VWS V14.00,2013-04-06 22:48:00,
2013-04-06 17:53:00,69.2,55.6,30.02,SSW,203,7.0,19.0,62,0.00,,SKC,0.00,VWS V14.00,2013-04-06 22:53:00,
2013-04-06 17:58:00,69.2,54.7,30.02,SW,236,8.0,19.0,60,0.00,,SKC,0.00,VWS V14.00,2013-04-06 22:58:00,
2013-04-06 18:04:00,69.2,55.2,30.02,SSW,200,10.0,11.0,61,0.00,,SKC,0.00,VWS V14.00,2013-04-06 23:04:00,
2013-04-06 18:09:00,69.2,55.2,30.02,South,183,10.0,13.0,61,0.00,,SKC,0.00,VWS V14.00,2013-04-06 23:09:00,
2013-04-06 18:14:00,69.0,55.0,30.02,South,191,10.0,15.0,61,0.00,,SKC,0.00,VWS V14.00,2013-04-06 23:14:00,
2013-04-06 18:19:00,68.8,55.7,30.01,SSW,192,8.0,15.0,63,0.00,,SKC,0.00,VWS V14.00,2013-04-06 23:19:00,
2013-04-06 18:24:00,68.6,55.5,30.01,South,170,12.0,15.0,63,0.00,,SKC,0.00,VWS V14.00,2013-04-06 23:24:00,
2013-04-06 18:29:00,68.5,55.9,30.01,South,184,11.0,15.0,64,0.00,,SKC,0.00,VWS V14.00,2013-04-06 23:29:00,
2013-04-06 18:34:00,68.3,55.7,30.01,South,180,8.0,15.0,64,0.00,,SKC,0.00,VWS V14.00,2013-04-06 23:34:00,
2013-04-06 18:39:00,68.1,55.5,30.01,SSW,192,11.0,15.0,64,0.00,,SKC,0.00,VWS V14.00,2013-04-06 23:39:00,
2013-04-06 18:44:00,67.6,55.8,30.01,South,187,13.0,15.0,66,0.00,,SKC,0.00,VWS V14.00,2013-04-06 23:44:00,
2013-04-06 18:49:00,67.2,55.5,30.01,South,179,12.0,15.0,66,0.00,,SKC,0.00,VWS V14.00,2013-04-06 23:49:00,
2013-04-06 18:54:00,67.0,56.1,30.01,South,180,10.0,15.0,68,0.00,,SKC,0.00,VWS V14.00,2013-04-06 23:54:00,
2013-04-06 18:59:00,66.8,56.3,30.01,South,186,6.0,15.0,69,0.00,,SKC,0.00,VWS V14.00,2013-04-06 23:59:00,
2013-04-06 19:05:00,66.4,56.3,30.01,South,181,8.0,10.0,70,0.00,,SKC,0.00,VWS V14.00,2013-04-07 00:05:00,
2013-04-06 19:10:00,65.9,55.8,30.01,South,182,9.0,12.0,70,0.00,,SKC,0.00,VWS V14.00,2013-04-07 00:10:00,
2013-04-06 19:15:00,65.7,55.7,30.01,SSW,192,7.0,13.0,70,0.00,,SKC,0.00,VWS V14.00,2013-04-07 00:15:00,
2013-04-06 19:20:00,65.3,55.7,30.01,South,186,7.0,13.0,71,0.00,,SKC,0.00,VWS V14.00,2013-04-07 00:20:00,
2013-04-06 19:25:00,64.9,55.7,30.01,South,185,7.0,13.0,72,0.00,,SKC,0.00,VWS V14.00,2013-04-07 00:25:00,
2013-04-06 19:30:00,64.3,55.8,30.01,South,184,5.0,13.0,74,0.00,,SKC,0.00,VWS V14.00,2013-04-07 00:30:00,
2013-04-06 19:35:00,63.7,55.6,30.01,South,184,4.0,13.0,75,0.00,,SKC,0.00,VWS V14.00,2013-04-07 00:35:00,
2013-04-06 19:40:00,63.4,55.7,30.01,South,184,3.0,13.0,76,0.00,,SKC,0.00,VWS V14.00,2013-04-07 00:40:00,
2013-04-06 19:45:00,63.1,55.4,30.01,South,184,3.0,13.0,76,0.00,,SKC,0.00,VWS V14.00,2013-04-07 00:45:00,
2013-04-06 19:50:00,63.0,55.3,30.01,South,184,4.0,13.0,76,0.00,,SKC,0.00,VWS V14.00,2013-04-07 00:50:00,
2013-04-06 19:55:00,62.8,55.1,30.01,South,184,4.0,13.0,76,0.00,,SKC,0.00,VWS V14.00,2013-04-07 00:55:00,
2013-04-06 20:00:00,62.6,55.3,30.02,South,184,3.0,13.0,77,0.00,,SKC,0.00,VWS V14.00,2013-04-07 01:00:00,
2013-04-06 20:05:00,62.5,55.2,30.01,South,184,3.0,4.0,77,0.00,,SKC,0.00,VWS V14.00,2013-04-07 01:05:00,
2013-04-06 20:10:00,62.4,55.5,30.02,South,184,3.0,5.0,78,0.00,,SKC,0.00,VWS V14.00,2013-04-07 01:10:00,
2013-04-06 20:15:00,62.3,55.4,30.01,South,184,4.0,6.0,78,0.00,,SKC,0.00,VWS V14.00,2013-04-07 01:15:00,
2013-04-06 20:20:00,62.1,55.2,30.01,South,184,4.0,6.0,78,0.00,,SKC,0.00,VWS V14.00,2013-04-07 01:20:00,
2013-04-06 20:25:00,61.7,55.1,30.01,South,184,4.0,6.0,79,0.00,,SKC,0.00,VWS V14.00,2013-04-07 01:25:00,
2013-04-06 20:30:00,61.4,55.2,30.02,South,184,2.0,6.0,80,0.00,,SKC,0.00,VWS V14.00,2013-04-07 01:30:00,
2013-04-06 20:35:00,61.3,55.1,30.02,South,184,2.0,6.0,80,0.00,,SKC,0.00,VWS V14.00,2013-04-07 01:35:00,
2013-04-06 20:40:00,61.3,55.1,30.02,South,184,3.0,6.0,80,0.00,,SKC,0.00,VWS V14.00,2013-04-07 01:40:00,
2013-04-06 20:45:00,61.3,55.1,30.02,South,184,3.0,6.0,80,0.00,,SKC,0.00,VWS V14.00,2013-04-07 01:45:00,
2013-04-06 20:50:00,61.1,54.9,30.02,South,184,3.0,6.0,80,0.00,,SKC,0.00,VWS V14.00,2013-04-07 01:50:00,
2013-04-06 20:55:00,60.9,54.7,30.03,South,184,2.0,6.0,80,0.00,,SKC,0.00,VWS V14.00,2013-04-07 01:55:00,
2013-04-06 21:00:00,60.7,54.8,30.03,South,184,3.0,6.0,81,0.00,,SKC,0.00,VWS V14.00,2013-04-07 02:00:00,
2013-04-06 21:05:00,60.6,54.8,30.03,South,184,2.0,3.0,81,0.00,,SKC,0.00,VWS V14.00,2013-04-07 02:05:00,
2013-04-06 21:10:00,60.5,54.7,30.03,South,184,2.0,3.0,81,0.00,,SKC,0.00,VWS V14.00,2013-04-07 02:10:00,
2013-04-06 21:15:00,60.4,54.5,30.03,South,184,2.0,3.0,81,0.00,,SKC,0.00,VWS V14.00,2013-04-07 02:15:00,
2013-04-06 21:20:00,60.3,54.8,30.03,South,184,2.0,3.0,82,0.00,,SKC,0.00,VWS V14.00,2013-04-07 02:20:00,
2013-04-06 21:25:00,60.3,54.8,30.03,South,184,2.0,3.0,82,0.00,,SKC,0.00,VWS V14.00,2013-04-07 02:25:00,
2013-04-06 21:30:00,60.2,54.7,30.03,South,184,3.0,3.0,82,0.00,,SKC,0.00,VWS V14.00,2013-04-07 02:30:00,
2013-04-06 21:35:00,60.1,54.9,30.03,South,184,3.0,4.0,83,0.00,,SKC,0.00,VWS V14.00,2013-04-07 02:35:00,
2013-04-06 21:40:00,59.9,55.1,30.03,South,184,3.0,4.0,84,0.00,,SKC,0.00,VWS V14.00,2013-04-07 02:40:00,
2013-04-06 21:45:00,59.8,55.3,30.03,South,184,3.0,4.0,85,0.00,,SKC,0.00,VWS V14.00,2013-04-07 02:45:00,
2013-04-06 21:50:00,59.7,55.5,30.03,South,184,3.0,4.0,86,0.00,,SKC,0.00,VWS V14.00,2013-04-07 02:50:00,
2013-04-06 21:55:00,59.6,55.4,30.04,South,184,5.0,5.0,86,0.00,,SKC,0.00,VWS V14.00,2013-04-07 02:55:00,
2013-04-06 22:00:00,59.6,55.7,30.03,South,184,4.0,5.0,87,0.00,,SKC,0.00,VWS V14.00,2013-04-07 03:00:00,
2013-04-06 22:05:00,59.5,55.6,30.04,South,184,5.0,5.0,87,0.00,,SKC,0.00,VWS V14.00,2013-04-07 03:05:00,
2013-04-06 22:10:00,59.3,55.4,30.04,South,184,5.0,7.0,87,0.00,,SKC,0.00,VWS V14.00,2013-04-07 03:10:00,
2013-04-06 22:15:00,59.3,55.4,30.04,South,184,5.0,7.0,87,0.00,,SKC,0.00,VWS V14.00,2013-04-07 03:15:00,
2013-04-06 22:20:00,59.2,55.3,30.04,South,184,4.0,7.0,87,0.00,,SKC,0.00,VWS V14.00,2013-04-07 03:20:00,
2013-04-06 22:25:00,59.3,55.4,30.04,South,184,4.0,7.0,87,0.00,,SKC,0.00,VWS V14.00,2013-04-07 03:25:00,
2013-04-06 22:30:00,59.3,55.4,30.04,South,184,5.0,7.0,87,0.00,,SKC,0.00,VWS V14.00,2013-04-07 03:30:00,
2013-04-06 22:35:00,59.2,55.0,30.04,South,184,5.0,7.0,86,0.00,,SKC,0.00,VWS V14.00,2013-04-07 03:35:00,
2013-04-06 22:40:00,59.2,55.0,30.04,South,184,4.0,7.0,86,0.00,,SKC,0.00,VWS V14.00,2013-04-07 03:40:00,
2013-04-06 22:45:00,59.1,54.9,30.03,South,184,3.0,7.0,86,0.00,,SKC,0.00,VWS V14.00,2013-04-07 03:45:00,
2013-04-06 22:50:00,59.0,54.8,30.03,South,184,4.0,7.0,86,0.00,,SKC,0.00,VWS V14.00,2013-04-07 03:50:00,
2013-04-06 22:55:00,58.8,54.6,30.03,South,184,5.0,7.0,86,0.00,,SKC,0.00,VWS V14.00,2013-04-07 03:55:00,
2013-04-06 23:00:00,58.6,54.8,30.03,South,184,3.0,7.0,87,0.00,,SKC,0.00,VWS V14.00,2013-04-07 04:00:00,
2013-04-06 23:01:00,58.5,54.7,30.03,South,184,4.0,7.0,87,0.00,,SKC,0.00,VWS V14.00,2013-04-07 04:01:00,
2013-04-06 23:06:00,58.3,54.5,30.03,South,184,4.0,4.0,87,0.00,,SKC,0.00,VWS V14.00,2013-04-07 04:06:00,
2013-04-06 23:11:00,58.2,54.7,30.03,South,184,3.0,4.0,88,0.00,,SKC,0.00,VWS V14.00,2013-04-07 04:11:00,
2013-04-06 23:16:00,58.1,54.3,30.03,South,184,4.0,5.0,87,0.00,,SKC,0.00,VWS V14.00,2013-04-07 04:16:00,
2013-04-06 23:21:00,57.7,54.2,30.03,South,184,3.0,5.0,88,0.00,,SKC,0.00,VWS V14.00,2013-04-07 04:21:00,
2013-04-06 23:26:00,57.7,54.2,30.03,South,184,3.0,5.0,88,0.00,,SKC,0.00,VWS V14.00,2013-04-07 04:26:00,
2013-04-06 23:31:00,57.8,54.6,30.03,South,184,3.0,5.0,89,0.00,,SKC,0.00,VWS V14.00,2013-04-07 04:31:00,
2013-04-06 23:36:00,57.7,54.2,30.03,South,184,4.0,5.0,88,0.00,,SKC,0.00,VWS V14.00,2013-04-07 04:36:00,
2013-04-06 23:41:00,57.7,54.5,30.03,South,184,4.0,6.0,89,0.00,,SKC,0.00,VWS V14.00,2013-04-07 04:41:00,
2013-04-06 23:46:00,57.6,54.4,30.03,South,184,5.0,6.0,89,0.00,,SKC,0.00,VWS V14.00,2013-04-07 04:46:00,
2013-04-06 23:51:00,57.6,54.4,30.02,South,184,4.0,6.0,89,0.00,,SKC,0.00,VWS V14.00,2013-04-07 04:51:00,
2013-04-06 23:56:00,57.9,54.7,30.02,South,184,4.0,6.0,89,0.00,,SKC,0.00,VWS V14.00,2013-04-07 04:56:00,